Weather History for Marathon, FL

Change the Weather History Date:

Friday, November 18, 2011

  Actual Average Record
Temperature  
Mean Temperature 80 °F 75 °F  
Max Temperature 83 °F 80 °F 84 °F (1998)
Min Temperature 76 °F 71 °F 55 °F (2002)
Degree Days  
Heating Degree Days 0 0  
Month to date heating degree days 0 0  
Since 1 July heating degree days 0 0  
Cooling Degree Days 15 10  
Month to date cooling degree days 209 208  
Year to date cooling degree days 4988 4647  
Growing Degree Days 28 (Base 50)    
Moisture  
Dew Point 73 °F    
Average Humidity 85    
Maximum Humidity 100    
Minimum Humidity 69    
Precipitation  
Precipitation 0.01 in 0.10 in 0.02 in (2007)
Month to date precipitation 0.30 1.98  
Year to date precipitation 35.81 43.31  
Snow  
Snow 0.00 in - - ()
Month to date snowfall 0.0  
Since 1 July snowfall 0.0  
Since 1 September snowfall 0.0  
Snow Depth 0.00 in    
Sea Level Pressure  
Sea Level Pressure 30.06 in    
Wind  
Wind Speed 10 mph (NE)    
Max Wind Speed 17 mph    
Max Gust Speed 24 mph    
Visibility 10 miles    
Events      
T = Trace of Precipitation, MM = Missing Value Source: NWS Daily Summary

Daily Weather History Graph

Daily Weather History Graph

Search for Another Location

Airport:

Trip Planner

Search our weather history database for the weather conditions in past years. The results will help you decide how hot, cold, wet, or windy it might be!

Date:

Astronomy

Nov. 18, 2011 Rise Set
Actual Time 6:42 AM EST 5:36 PM EST
Civil Twilight 6:18 AM EST 6:00 PM EST
Nautical Twilight 5:50 AM EST 6:28 PM EST
Astronomical Twilight 5:23 AM EST 6:55 PM EST
Moon No Moon Rise 12:39 PM EST (11/18)
Length of Visible Light 11h 42m
Length of Day
10h 53m
Waning Gibbous, 49% of the Moon is Illuminated
Nov 18
Waning Gibbous
Nov 25
New
Dec 2
First Quarter
Dec 10
Full
Dec 17
Last Quarter

Hourly Weather History & Observations

Time (EST) Temp. Heat Index Dew Point Humidity Pressure Visibility Wind Dir Wind Speed Gust Speed Precip Events Conditions
12:53 AM 77.0 °F - 71.1 °F 82% 30.04 in 10.0 mi North 5.8 mph - N/A   Overcast
1:53 AM 75.9 °F - 72.0 °F 87% 30.04 in 10.0 mi North 5.8 mph - N/A   Overcast
2:53 AM 77.0 °F - 71.1 °F 82% 30.02 in 10.0 mi North 3.5 mph - N/A   Overcast
3:53 AM 77.0 °F - 72.0 °F 84% 30.03 in 10.0 mi NNE 3.5 mph - N/A   Overcast
4:53 AM 77.0 °F - 73.0 °F 88% 30.02 in 10.0 mi North 4.6 mph - N/A   Overcast
5:53 AM 77.0 °F - 73.0 °F 88% 30.04 in 10.0 mi NNE 5.8 mph - N/A   Overcast
6:29 AM 75.2 °F - 75.2 °F 100% 30.05 in 10.0 mi NNE 5.8 mph - N/A   Partly Cloudy
7:09 AM 77.0 °F - 73.4 °F 89% 30.06 in 10.0 mi NNE 6.9 mph - N/A   Mostly Cloudy
7:21 AM 77.0 °F - 73.4 °F 89% 30.06 in 10.0 mi NE 5.8 mph - N/A   Mostly Cloudy
7:31 AM 78.8 °F - 73.4 °F 83% 30.07 in 10.0 mi NE 9.2 mph - N/A   Scattered Clouds
7:53 AM 79.0 °F - 73.0 °F 82% 30.07 in 10.0 mi NE 8.1 mph - N/A   Partly Cloudy
8:53 AM 80.1 °F 84.5 °F 73.9 °F 81% 30.09 in 10.0 mi NE 13.8 mph - N/A   Scattered Clouds
9:53 AM 81.0 °F 86.7 °F 75.0 °F 82% 30.10 in 10.0 mi NE 15.0 mph - N/A   Mostly Cloudy
10:05 AM 80.6 °F 86.2 °F 75.2 °F 84% 30.10 in 10.0 mi NE 12.7 mph - N/A   Scattered Clouds
11:53 AM 82.9 °F 89.4 °F 73.9 °F 74% 30.09 in 10.0 mi NE 12.7 mph - N/A   Partly Cloudy
12:53 PM 80.1 °F 85.4 °F 75.9 °F 87% 30.06 in 10.0 mi ENE 11.5 mph - 0.01 in   Mostly Cloudy
1:53 PM 82.0 °F 87.4 °F 73.0 °F 74% 30.04 in 10.0 mi East 9.2 mph - N/A   Partly Cloudy
2:53 PM 82.9 °F 88.0 °F 72.0 °F 69% 30.04 in 10.0 mi East 9.2 mph - N/A   Partly Cloudy
3:53 PM 82.0 °F 86.7 °F 72.0 °F 71% 30.04 in 10.0 mi East 9.2 mph - N/A   Clear
4:53 PM 80.1 °F 83.8 °F 72.0 °F 76% 30.05 in 10.0 mi East 9.2 mph - N/A   Mostly Cloudy
5:28 PM 78.8 °F - 73.4 °F 83% 30.06 in 10.0 mi NE 6.9 mph - N/A   Mostly Cloudy
5:53 PM 78.1 °F - 73.9 °F 87% 30.06 in 10.0 mi NE 13.8 mph 18.4 mph N/A   Overcast
6:07 PM 78.8 °F - 73.4 °F 83% 30.07 in 10.0 mi ENE 6.9 mph 18.4 mph N/A   Overcast
7:53 PM 78.1 °F - 73.0 °F 84% 30.09 in 10.0 mi ENE 15.0 mph 20.7 mph N/A   Partly Cloudy
8:53 PM 78.1 °F - 72.0 °F 81% 30.10 in 10.0 mi East 11.5 mph 24.2 mph N/A   Partly Cloudy
9:53 PM 78.1 °F - 72.0 °F 81% 30.11 in 10.0 mi ENE 13.8 mph 20.7 mph N/A   Clear
11:53 PM 78.1 °F - 71.1 °F 79% 30.10 in 10.0 mi East 12.7 mph 17.3 mph N/A   Partly Cloudy